Weather History for Fayetteville, NC

Change the Weather History Date:

Friday, July 19, 2013

  Actual Average Record
Temperature  
Mean Temperature 84 °F 82 °F  
Max Temperature 93 °F 91 °F 101 °F (2002)
Min Temperature 74 °F 72 °F 61 °F (1987)
Degree Days  
Heating Degree Days 0 0  
Month to date heating degree days 0 0  
Since 1 June heating degree days 0 0  
Since 1 July heating degree days 0 0  
Cooling Degree Days 19 17  
Month to date cooling degree days 305 312  
Year to date cooling degree days 949 992  
Since 1 June cooling degree days 700 708  
Growing Degree Days 33 (Base 50)    
Moisture  
Dew Point 72 °F    
Average Humidity 71    
Maximum Humidity 94    
Minimum Humidity 47    
Precipitation  
Precipitation 0.00 in 0.21 in 1.64 in (1968)
Month to date precipitation 6.24 3.48  
Year to date precipitation 28.16 23.50  
Sea Level Pressure  
Sea Level Pressure 30.06 in    
Wind  
Wind Speed 9 mph (SSW)    
Max Wind Speed 16 mph    
Max Gust Speed 22 mph    
Visibility 10 miles    
Events      
T = Trace of Precipitation, MM = Missing Value Source: NWS Daily Summary

Daily Weather History Graph

Daily Weather History Graph

Search for Another Location

Airport:

Trip Planner

Search our weather history database for the weather conditions in past years. The results will help you decide how hot, cold, wet, or windy it might be!

Date:

Astronomy

Jul. 19, 2013 Rise Set
Actual Time 6:15 AM EDT 8:27 PM EDT
Civil Twilight 5:47 AM EDT 8:56 PM EDT
Nautical Twilight 5:11 AM EDT 9:31 PM EDT
Astronomical Twilight 4:33 AM EDT 10:09 PM EDT
Moon 5:28 PM EDT (7/19) 2:54 AM EDT (7/19)
Length of Visible Light 15h 09m
Length of Day
14h 11m
Waxing Gibbous, 86% of the Moon is Illuminated
Jul 19
Waxing Gibbous
Jul 22
Full
Jul 29
Last Quarter
Aug 6
New
Aug 14
First Quarter

Hourly Weather History & Observations

Time (EDT) Temp. Heat Index Dew Point Humidity Pressure Visibility Wind Dir Wind Speed Gust Speed Precip Events Conditions
12:53 AM 80.1 °F 84.5 °F 73.9 °F 81% 30.09 in 10.0 mi SSW 8.1 mph - N/A   Overcast
1:53 AM 79.0 °F - 73.0 °F 82% 30.09 in 10.0 mi SW 8.1 mph - N/A   Overcast
2:53 AM 77.0 °F - 73.0 °F 88% 30.08 in 10.0 mi SSW 4.6 mph - N/A   Scattered Clouds
3:53 AM 75.9 °F - 73.0 °F 91% 30.07 in 10.0 mi SSW 6.9 mph - N/A   Clear
4:53 AM 75.0 °F - 72.0 °F 90% 30.07 in 10.0 mi SSW 6.9 mph - N/A   Clear
5:53 AM 75.0 °F - 72.0 °F 90% 30.08 in 9.0 mi SSW 5.8 mph - N/A   Clear
6:53 AM 75.0 °F - 73.0 °F 94% 30.09 in 7.0 mi SSW 5.8 mph - N/A   Clear
7:53 AM 77.0 °F - 73.0 °F 88% 30.10 in 10.0 mi SW 9.2 mph - N/A   Clear
8:53 AM 81.0 °F 85.8 °F 73.0 °F 77% 30.11 in 10.0 mi SSW 10.4 mph - N/A   Clear
9:53 AM 84.0 °F 89.0 °F 71.1 °F 65% 30.11 in 10.0 mi SW 10.4 mph - N/A   Clear
10:53 AM 86.0 °F 92.2 °F 72.0 °F 63% 30.11 in 10.0 mi SSW 11.5 mph - N/A   Clear
11:53 AM 88.0 °F 94.7 °F 72.0 °F 59% 30.10 in 10.0 mi SW 9.2 mph - N/A   Partly Cloudy
12:53 PM 89.1 °F 94.1 °F 70.0 °F 53% 30.09 in 10.0 mi SSW 11.5 mph - N/A   Partly Cloudy
1:53 PM 89.1 °F 94.1 °F 70.0 °F 53% 30.07 in 10.0 mi SSW 11.5 mph - N/A   Scattered Clouds
2:53 PM 91.0 °F 95.6 °F 69.1 °F 48% 30.04 in 10.0 mi SW 10.4 mph - N/A   Clear
3:53 PM 91.9 °F 95.9 °F 68.0 °F 45% 30.03 in 10.0 mi SSW 11.5 mph - N/A   Clear
4:53 PM 91.9 °F 96.9 °F 69.1 °F 47% 30.01 in 10.0 mi SW 13.8 mph - N/A   Clear
5:53 PM 90.0 °F 95.4 °F 70.0 °F 52% 29.99 in 10.0 mi South 11.5 mph - N/A   Scattered Clouds
6:53 PM 88.0 °F 94.7 °F 72.0 °F 59% 29.99 in 10.0 mi SSW 15.0 mph 19.6 mph N/A   Partly Cloudy
7:53 PM 86.0 °F 92.2 °F 72.0 °F 63% 29.99 in 10.0 mi South 6.9 mph - N/A   Clear
8:53 PM 82.0 °F 87.4 °F 73.0 °F 74% 30.00 in 10.0 mi South 5.8 mph - N/A   Clear
9:53 PM 81.0 °F 85.8 °F 73.0 °F 77% 30.02 in 10.0 mi South 9.2 mph - N/A   Clear
10:53 PM 80.1 °F 84.2 °F 73.0 °F 79% 30.04 in 10.0 mi South 9.2 mph - N/A   Clear
11:53 PM 79.0 °F - 73.0 °F 82% 30.04 in 10.0 mi South 8.1 mph - N/A   Clear